EW4610 Weather Reports


Display with metric or nautical units.
time (UTC)temp
F
wind
direction
speed
MPH
gust
MPH
rain 1hr
in
rain 24hr
in
rain mn
in
humidity
%
barometer
mb
20260510124930 55 2.0 4.0 0.00 0.00 0.00 67 1016.7
20260510124354 54 1.0 2.0 0.00 0.00 0.00 65 1016.9
20260510123824 55 5.0 11.0 0.00 0.00 0.00 64 1016.8
20260510123243 56 3.0 8.0 0.00 0.00 0.00 64 1016.8
20260510122732 57 6.0 11.0 0.00 0.00 0.00 62 1017.1
20260510122232 57 5.0 9.0 0.00 0.00 0.00 63 1017.2
20260510121730 57 2.0 9.0 0.00 0.00 0.00 63 1017.1
20260510121230 56 3.0 7.0 0.00 0.00 0.00 64 1017.0
20260510120729 56 6.0 10.0 0.00 0.00 0.00 64 1016.9
20260510120229 56 4.0 6.0 0.00 0.00 0.00 64 1017.2
20260510115729 56 6.0 11.0 0.00 0.00 0.00 63 1017.0
20260510115157 56 1.0 9.0 0.00 0.00 0.00 63 1017.0
20260510114611 57 4.0 10.0 0.00 0.00 0.00 63 1017.1
20260510114039 57 7.0 10.0 0.00 0.00 0.00 63 1017.1
20260510113509 57 4.0 9.0 0.00 0.00 0.00 63 1017.2
20260510112923 57 2.0 8.0 0.00 0.00 0.00 65 1017.1
20260510112353 56 6.0 14.0 0.00 0.00 0.00 65 1017.3
20260510111807 56 3.0 6.0 0.00 0.00 0.00 65 1017.5
20260510111238 56 4.0 8.0 0.00 0.00 0.00 65 1017.4
20260510110700 56 4.0 8.0 0.00 0.00 0.00 65 1017.6
20260510110129 56 6.0 13.0 0.00 0.00 0.00 65 1017.4
20260510105544 56 4.0 7.0 0.00 0.00 0.00 66 1017.3
20260510105013 56 2.0 4.0 0.00 0.00 0.00 66 1017.6
20260510104442 56 7.0 13.0 0.00 0.00 0.00 66 1017.5
20260510103902 56 3.0 7.0 0.00 0.00 0.00 67 1017.8
20260510103231 55 2.0 4.0 0.00 0.00 0.00 67 1017.7
20260510102730 55 3.0 7.0 0.00 0.00 0.00 68 1017.5
20260510102230 55 2.0 4.0 0.00 0.00 0.00 68 1017.5
20260510101728 55 4.0 6.0 0.00 0.00 0.00 68 1017.5
20260510101156 54 3.0 8.0 0.00 0.00 0.00 68 1017.5
20260510100611 54 3.0 8.0 0.00 0.00 0.00 68 1017.6
20260510100054 54 3.0 8.0 0.00 0.00 0.00 68 1017.4
20260510095506 54 4.0 7.0 0.00 0.00 0.00 68 1017.5
20260510094934 54 8.0 13.0 0.00 0.00 0.00 68 1017.4
20260510094400 54 4.0 7.0 0.00 0.00 0.00 68 1017.5
20260510093824 54 2.0 5.0 0.00 0.00 0.00 68 1017.5
20260510093233 54 5.0 11.0 0.00 0.00 0.00 68 1017.6
20260510092733 54 6.0 11.0 0.00 0.00 0.00 68 1017.7
20260510092232 54 6.0 13.0 0.00 0.00 0.00 69 1017.7
20260510091732 54 9.0 14.0 0.00 0.00 0.00 69 1017.5
20260510091203 54 3.0 8.0 0.00 0.00 0.00 70 1017.5
20260510090608 54 6.0 11.0 0.00 0.00 0.00 71 1017.7
20260510090053 53 8.0 11.0 0.00 0.00 0.00 71 1017.9
20260510085506 53 4.0 8.0 0.00 0.00 0.00 71 1017.6
20260510084936 53 2.0 7.0 0.00 0.00 0.00 72 1017.8
20260510084355 53 2.0 4.0 0.00 0.00 0.00 73 1018.0
20260510083829 53 4.0 11.0 0.00 0.00 0.00 73 1018.0
20260510083248 53 8.0 14.0 0.00 0.00 0.00 73 1017.9
20260510082731 53 1.0 4.0 0.00 0.00 0.00 73 1018.1
20260510082231 53 4.0 11.0 0.00 0.00 0.00 74 1017.9
20260510081724 53 5.0 8.0 0.00 0.00 0.00 74 1018.0
20260510081237 52 3.0 6.0 0.00 0.00 0.00 75 1017.9
20260510080742 52 4.0 10.0 0.00 0.00 0.00 75 1018.1
20260510080233 52 2.0 4.0 0.00 0.00 0.00 75 1018.0
20260510075722 52 4.0 8.0 0.00 0.00 0.00 76 1018.0
20260510075222 52 3.0 7.0 0.00 0.00 0.00 76 1018.0
20260510074721 52 3.0 10.0 0.00 0.00 0.00 77 1018.0
20260510074220 52 2.0 4.0 0.00 0.00 0.00 77 1018.0
20260510073720 52 2.0 8.0 0.00 0.00 0.00 77 1018.1
20260510073220 52 4.0 8.0 0.00 0.00 0.00 77 1017.9
20260510072720 51 2.0 5.0 0.00 0.00 0.00 77 1018.0
20260510072219 51 4.0 10.0 0.00 0.00 0.00 78 1018.0
20260510071719 51 6.0 11.0 0.00 0.00 0.00 79 1018.0
20260510071218 51 2.0 4.0 0.00 0.00 0.00 79 1017.9
20260510070922 51 4.0 9.0 0.00 0.00 0.00 79 1018.0
20260510070352 51 4.0 9.0 0.00 0.00 0.00 80 1017.9
20260510065821 51 5.0 8.0 0.00 0.00 0.00 80 1017.9
20260510065231 51 3.0 8.0 0.00 0.00 0.00 80 1018.0
20260510064700 51 2.0 5.0 0.00 0.00 0.00 81 1018.1
20260510064144 51 1.0 3.0 0.00 0.00 0.00 81 1018.0
20260510063544 51 4.0 6.0 0.00 0.00 0.00 81 1018.0
20260510063013 50 4.0 9.0 0.00 0.00 0.00 81 1018.0
20260510062443 50 2.0 10.0 0.00 0.00 0.00 82 1017.9
20260510061911 50 2.0 6.0 0.00 0.00 0.00 82 1017.7
20260510061335 50 2.0 5.0 0.00 0.00 0.00 81 1017.8
20260510060624 50 4.0 8.0 0.00 0.00 0.00 82 1017.9
20260510060023 50 3.0 6.0 0.00 0.00 0.00 82 1017.8
20260510055200 50 3.0 6.0 0.00 0.00 0.00 83 1017.6
20260510054347 50 3.0 6.0 0.00 0.00 0.00 83 1017.7
20260510053830 50 2.0 5.0 0.00 0.00 0.00 83 1017.6
20260510053214 50 3.0 7.0 0.00 0.00 0.00 84 1017.5
20260510052618 49 0.0 1.0 0.00 0.00 0.00 85 1017.5
20260510052114 49 4.0 5.0 0.00 0.00 0.00 85 1017.6
20260510051402 49 3.0 11.0 0.00 0.00 0.00 85 1017.5
20260510050605 49 2.0 4.0 0.00 0.00 0.00 86 1017.6
20260510045747 49 1.0 2.0 0.00 0.00 0.00 86 1017.5
20260510045231 49 3.0 6.0 0.00 0.00 0.00 86 1017.6
20260510044744 49 2.0 10.0 0.00 0.00 0.00 86 1017.7
20260510044213 49 4.0 7.0 0.00 0.00 0.00 87 1017.5
20260510043655 49 1.0 2.0 0.00 0.00 0.00 87 1017.6
20260510043122 49 3.0 5.0 0.00 0.00 0.00 87 1017.7
20260510042546 49 2.0 4.0 0.00 0.00 0.00 86 1017.5
20260510041902 49 3.0 7.0 0.00 0.00 0.00 86 1017.8
20260510041402 49 3.0 4.0 0.00 0.00 0.00 86 1017.6
20260510040832 49 2.0 7.0 0.00 0.00 0.00 86 1017.6
20260510040225 49 1.0 5.0 0.00 0.00 0.00 86 1017.6
20260510035734 49 3.0 8.0 0.00 0.00 0.00 86 1017.8
20260510035227 49 2.0 3.0 0.00 0.00 0.00 86 1017.6
20260510034725 49 2.0 7.0 0.00 0.00 0.00 86 1017.7
20260510034222 49 2.0 4.0 0.00 0.00 0.00 86 1017.8
20260510033650 49 1.0 4.0 0.00 0.00 0.00 86 1018.0
20260510032933 49 2.0 3.0 0.00 0.00 0.00 86 1018.0
20260510032352 49 2.0 5.0 0.00 0.00 0.00 86 1018.2
20260510031822 49 3.0 6.0 0.00 0.00 0.00 85 1018.0
20260510031231 49 2.0 6.0 0.00 0.00 0.00 85 1017.9
20260510030729 49 2.0 4.0 0.00 0.00 0.00 85 1018.0
20260510030229 49 1.0 2.0 0.00 0.00 0.00 85 1018.0
20260510025455 49 2.0 5.0 0.00 0.00 0.00 85 1018.2
20260510024518 49 2.0 4.0 0.00 0.00 0.00 84 1018.2
20260510023721 49 3.0 4.0 0.00 0.00 0.00 83 1018.0
20260510023234 49 2.0 4.0 0.00 0.00 0.00 82 1018.1
20260510022713 49 3.0 8.0 0.00 0.00 0.00 82 1018.3
20260510021819 50 3.0 7.0 0.00 0.00 0.00 79 1018.1
20260510021238 50 2.0 4.0 0.00 0.00 0.00 78 1018.0
20260510020747 50 3.0 9.0 0.00 0.00 0.00 77 1017.9
20260510020311 50 4.0 9.0 0.00 0.00 0.00 77 1018.1
20260510015506 50 4.0 8.0 0.00 0.00 0.00 76 1017.8
20260510015002 50 4.0 9.0 0.00 0.00 0.00 75 1017.9
20260510014245 51 5.0 8.0 0.00 0.00 0.00 75 1018.0
20260510013732 51 3.0 9.0 0.00 0.00 0.00 75 1018.0
20260510012931 51 6.0 11.0 0.00 0.00 0.00 75 1018.2
20260510012359 51 4.0 6.0 0.00 0.00 0.00 75 1018.2
20260510011854 51 1.0 2.0 0.00 0.00 0.00 74 1018.2
20260510011229 51 2.0 3.0 0.00 0.00 0.00 74 1018.2
20260510010803 51 3.0 4.0 0.00 0.00 0.00 73 1018.1
20260510010231 51 2.0 3.0 0.00 0.00 0.00 73 1018.2
20260510005722 51 2.0 4.0 0.00 0.00 0.00 73 1018.1
20260510005234 51 2.0 6.0 0.00 0.00 0.00 72 1018.1
20260510004743 51 1.0 3.0 0.00 0.00 0.00 71 1018.2
20260510004242 51 2.0 2.0 0.00 0.00 0.00 70 1018.1
20260510003731 51 2.0 4.0 0.00 0.00 0.00 69 1018.0
20260510003231 51 2.0 4.0 0.00 0.00 0.00 68 1017.8
20260510002720 52 2.0 4.0 0.00 0.00 0.00 67 1018.0
20260510002234 52 2.0 6.0 0.00 0.00 0.00 67 1017.9
20260510001744 52 2.0 4.0 0.00 0.00 0.00 66 1018.3
20260510001230 52 2.0 2.0 0.00 0.00 0.00 66 1018.3
20260510000719 52 2.0 5.0 0.00 0.00 0.00 65 1018.3
20260510000219 52 0.0 1.0 0.00 0.00 0.00 65 1018.1
20260509235648 52 2.0 6.0 0.00 0.00 0.00 65 1018.1
20260509235122 52 4.0 8.0 0.00 0.00 0.00 66 1018.0
20260509234547 53 2.0 5.0 0.00 0.00 0.00 66 1017.9
20260509233949 53 1.0 2.0 0.00 0.00 0.00 66 1018.0
20260509233207 53 0.0 2.0 0.00 0.00 0.00 66 1018.0
20260509232623 53 0.0 1.0 0.00 0.00 0.00 65 1018.1
20260509232056 53 2.0 4.0 0.00 0.00 0.00 64 1018.1
20260509231243 53 1.0 2.0 0.00 0.00 0.00 64 1018.3
20260509230717 53 3.0 6.0 0.00 0.00 0.00 63 1018.0
20260509230217 53 2.0 4.0 0.00 0.00 0.00 62 1018.1
20260509225054 54 2.0 5.0 0.00 0.00 0.00 62 1018.1
20260509224554 54 1.0 4.0 0.00 0.00 0.00 61 1018.0
20260509223608 54 0.0 1.0 0.00 0.00 0.00 60 1017.9
20260509223032 54 2.0 4.0 0.00 0.00 0.00 59 1018.0
20260509221940 54 1.0 3.0 0.00 0.00 0.00 57 1018.0
20260509221322 54 1.0 2.0 0.00 0.00 0.00 57 1018.1
20260509220837 54 2.0 7.0 0.00 0.00 0.00 56 1018.1
20260509220225 54 3.0 5.0 0.00 0.00 0.00 56 1018.1
20260509215653 54 0.0 0.0 0.00 0.00 0.00 56 1018.0
20260509215053 53 2.0 4.0 0.00 0.00 0.00 56 1018.1
20260509214246 54 1.0 2.0 0.00 0.00 0.00 55 1018.1
20260509213644 54 1.0 2.0 0.00 0.00 0.00 54 1018.2
20260509213059 54 0.0 0.0 0.00 0.00 0.00 53 1018.2
20260509212528 54 0.0 0.0 0.00 0.00 0.00 53 1018.2
20260509211958 54 0.0 1.0 0.00 0.00 0.00 52 1018.0
20260509211422 55 0.0 1.0 0.00 0.00 0.00 52 1017.8
20260509210059 56 0.0 2.0 0.00 0.00 0.00 49 1017.8
20260509205511 56 2.0 4.0 0.00 0.00 0.00 49 1017.7
20260509204936 56 1.0 3.0 0.00 0.00 0.00 48 1017.7
20260509204342 56 1.0 4.0 0.00 0.00 0.00 48 1017.8
20260509203829 56 0.0 2.0 0.00 0.00 0.00 47 1017.7
20260509203248 56 2.0 4.0 0.00 0.00 0.00 47 1017.7
20260509202527 57 0.0 2.0 0.00 0.00 0.00 46 1017.8
20260509201952 57 0.0 1.0 0.00 0.00 0.00 45 1017.6
20260509201435 57 0.0 2.0 0.00 0.00 0.00 44 1017.6
20260509200727 57 0.0 1.0 0.00 0.00 0.00 44 1017.5
20260509200242 58 2.0 6.0 0.00 0.00 0.00 43 1017.6
20260509195733 58 1.0 2.0 0.00 0.00 0.00 42 1017.6
20260509195159 58 0.0 2.0 0.00 0.00 0.00 41 1017.7
20260509194521 58 3.0 4.0 0.00 0.00 0.00 41 1017.6
20260509193951 58 3.0 8.0 0.00 0.00 0.00 41 1017.5
20260509193229 58 4.0 7.0 0.00 0.00 0.00 41 1017.4
20260509192729 59 5.0 8.0 0.00 0.00 0.00 39 1017.4
20260509192228 59 3.0 8.0 0.00 0.00 0.00 39 1017.4
20260509191728 59 2.0 6.0 0.00 0.00 0.00 39 1017.1
20260509191221 59 1.0 4.0 0.00 0.00 0.00 39 1017.1
20260509190721 60 2.0 4.0 0.00 0.00 0.00 41 1017.2
20260509190218 60 1.0 4.0 0.00 0.00 0.00 41 1017.0
20260509185718 60 0.0 2.0 0.00 0.00 0.00 41 1017.2
20260509185147 60 2.0 5.0 0.00 0.00 0.00 40 1017.3
20260509184617 61 2.0 4.0 0.00 0.00 0.00 39 1017.3
20260509184031 61 3.0 5.0 0.00 0.00 0.00 39 1017.1
20260509183501 61 1.0 4.0 0.00 0.00 0.00 38 1017.0
20260509182930 61 2.0 4.0 0.00 0.00 0.00 38 1017.1
20260509182359 62 3.0 6.0 0.00 0.00 0.00 38 1017.0
20260509181809 62 0.0 1.0 0.00 0.00 0.00 39 1016.9
20260509181309 62 2.0 4.0 0.00 0.00 0.00 39 1017.3
20260509180735 62 4.0 7.0 0.00 0.00 0.00 36 1017.2
20260509180229 63 2.0 5.0 0.00 0.00 0.00 36 1017.1
20260509175725 63 2.0 4.0 0.00 0.00 0.00 35 1017.0
20260509175219 63 2.0 4.0 0.00 0.00 0.00 34 1016.9
20260509174640 64 2.0 5.0 0.00 0.00 0.00 37 1016.6
20260509174033 65 2.0 6.0 0.00 0.00 0.00 37 1016.6
20260509173503 66 1.0 4.0 0.00 0.00 0.00 36 1016.7
20260509172933 67 2.0 4.0 0.00 0.00 0.00 35 1016.6
20260509172342 68 2.0 5.0 0.00 0.00 0.00 34 1016.9
20260509171826 68 1.0 2.0 0.00 0.00 0.00 33 1016.7
20260509171245 69 1.0 2.0 0.00 0.00 0.00 33 1016.9
20260509170628 69 1.0 3.0 0.00 0.00 0.00 33 1016.6
20260509170044 69 2.0 4.0 0.00 0.00 0.00 33 1016.8
20260509165514 69 5.0 8.0 0.00 0.00 0.00 32 1016.7
20260509164918 70 4.0 10.0 0.00 0.00 0.00 32 1016.9
20260509164348 71 2.0 4.0 0.00 0.00 0.00 32 1016.9
20260509163818 71 2.0 3.0 0.00 0.00 0.00 32 1016.9
20260509163231 71 8.0 11.0 0.00 0.00 0.00 32 1016.7
20260509162731 72 4.0 12.0 0.00 0.00 0.00 31 1016.8
20260509162219 72 2.0 4.0 0.00 0.00 0.00 32 1016.6
20260509161719 72 4.0 7.0 0.00 0.00 0.00 32 1016.8
20260509161219 72 2.0 8.0 0.00 0.00 0.00 31 1016.6
20260509160719 72 2.0 4.0 0.00 0.00 0.00 32 1016.9
20260509160218 72 1.0 4.0 0.00 0.00 0.00 32 1016.9
20260509155717 72 2.0 5.0 0.00 0.00 0.00 31 1017.0
20260509155232 72 2.0 4.0 0.00 0.00 0.00 32 1017.0
20260509154726 72 4.0 6.0 0.00 0.00 0.00 32 1016.9
20260509154225 72 4.0 6.0 0.00 0.00 0.00 32 1017.1
20260509153724 72 1.0 2.0 0.00 0.00 0.00 32 1017.2
20260509153224 73 4.0 8.0 0.00 0.00 0.00 31 1017.2
20260509152723 73 2.0 4.0 0.00 0.00 0.00 31 1017.1
20260509152232 73 2.0 8.0 0.00 0.00 0.00 32 1017.2
20260509151731 73 2.0 8.0 0.00 0.00 0.00 33 1017.2
20260509151231 73 2.0 4.0 0.00 0.00 0.00 32 1017.2
20260509150720 73 2.0 4.0 0.00 0.00 0.00 32 1017.2
20260509150220 73 2.0 4.0 0.00 0.00 0.00 32 1017.3
20260509145718 73 5.0 8.0 0.00 0.00 0.00 31 1017.1
20260509145218 73 2.0 6.0 0.00 0.00 0.00 32 1017.1
20260509144717 73 1.0 3.0 0.00 0.00 0.00 31 1017.0
20260509144233 73 2.0 4.0 0.00 0.00 0.00 30 1017.2
20260509143731 74 5.0 9.0 0.00 0.00 0.00 31 1017.1
20260509143145 74 2.0 5.0 0.00 0.00 0.00 31 1016.8
20260509142615 73 2.0 8.0 0.00 0.00 0.00 31 1016.8
20260509142040 74 2.0 4.0 0.00 0.00 0.00 31 1016.7
20260509141509 74 2.0 3.0 0.00 0.00 0.00 31 1016.5
20260509140917 74 4.0 8.0 0.00 0.00 0.00 31 1016.8
20260509140347 74 2.0 5.0 0.00 0.00 0.00 31 1016.6
20260509135816 74 4.0 7.0 0.00 0.00 0.00 30 1016.7
20260509135231 74 4.0 10.0 0.00 0.00 0.00 29 1016.9
20260509134731 74 4.0 8.0 0.00 0.00 0.00 30 1016.9
20260509134230 74 2.0 4.0 0.00 0.00 0.00 31 1017.0
20260509133730 74 1.0 2.0 0.00 0.00 0.00 30 1017.0
20260509133228 73 4.0 6.0 0.00 0.00 0.00 31 1016.8
20260509132727 73 4.0 6.0 0.00 0.00 0.00 33 1016.8
20260509132227 73 5.0 9.0 0.00 0.00 0.00 33 1016.9
20260509131727 73 2.0 8.0 0.00 0.00 0.00 32 1017.1
20260509131226 73 6.0 10.0 0.00 0.00 0.00 31 1017.0
20260509130725 74 2.0 5.0 0.00 0.00 0.00 31 1016.9
20260509130233 74 5.0 7.0 0.00 0.00 0.00 32 1017.1
20260509125727 74 3.0 6.0 0.00 0.00 0.00 33 1017.0
20260509125227 74 2.0 4.0 0.00 0.00 0.00 35 1017.2